Location: Dana
(41.8364°N, 106.7042°W)
Time: 14:40:48
(UTC+00:00)

Tiros 1 despin weight - Pass Details

Date: 17 May 2026
Orbit: 554 x 591 km, 48.2° (Epoch: 6 June)

Event Time Altitude Azimuth Distance (km) Brightness Sun altitude
Rises 10:23:00 0° 210° (SSW) 2,763 - -13.4°
Reaches altitude 10° 10:25:29 10° 199° (SSW) 1,862 - -13.0°
Exits shadow 10:26:16 14° 192° (SSW) 1,606 ? -12.9°
Maximum altitude 10:29:08 28° 139° (SE) 1,071 ? -12.5°
Drops below altitude 10° 10:32:46 10° 80° (E) 1,851 ? -12.0°
Sets 10:35:14 0° 69° (ENE) 2,744 ? -11.6°
